User: anonymous   Login
Location: Unspecified
(0.0000°N, 0.0000°E)
Time: 05:43:20
(UTC+00:00)
Language:

STARLINK-4262 - Orbit

View from above orbital plane
View from above orbital plane
View from above satellite
View from above satellite

Ground track
Ground track

The orbit is defined by the following mean orbital elements,

1 53015U          26145.26015957 +.00000000 +00000-0 -71055-4 0 00003
2 53015  53.2138 100.3808 0001331  84.5363 275.5781 15.08836048    03
Epoch (UTC): 25 May 2026 06:14:37
Eccentricity: 0.0001331
inclination: 53.2138°
perigee height: 539 km
apogee height: 541 km
right ascension of ascending node: 100.3808°
argument of perigee: 84.5363°
revolutions per day: 15.08836048
mean anomaly at epoch: 275.5781°

The dashed part of the orbit path shows where the satellite is in the earth's shadow,  

DLR